Theta_e
312 312 311 312 312 312 313 315 315 316 316 317 318 318 318 317 316 304 298 301 305 314 315 305 302 301 300 299 301 303 294 291 295 295 296 298 297 299 298 298 295 299 300 300 315
308 308 308 308 309 310 311 312 313 313 314 315 316 318 317 317 305 300 306 312 313 317 300 299 298 297 294 296 298 297 291 295 300 298 296 295 295 296 295 294 294 294 295 305 311
308 308 308 309 308 309 310 311 311 312 313 314 315 317 316 312 294 292 314 314 317 314 302 298 299 296 292 295 295 295 293 300 299 299 298 295 292 293 293 294 297 296 297 307 308
307 306 306 306 307 308 309 309 310 310 312 313 314 316 316 304 286 295 318 318 317 306 302 299 295 291 291 291 296 291 297 299 301 301 294 292 293 292 294 297 294 295 297 304 305
305 304 305 305 306 307 307 308 309 309 311 311 313 315 304 291 291 300 314 313 306 302 298 297 292 290 288 290 292 291 295 298 301 300 295 294 293 294 292 295 292 293 295 300 305
304 304 304 305 305 306 307 308 309 310 312 312 312 314 294 285 296 301 300 302 301 298 297 297 293 293 290 290 290 292 294 296 297 295 293 292 292 290 292 292 293 292 293 295 297
304 304 304 305 305 306 308 309 310 310 312 312 312 308 295 289 295 297 298 296 299 298 295 298 296 292 291 288 291 291 288 290 290 293 292 291 289 287 294 292 292 291 292 293 293
303 303 304 304 305 306 308 310 311 312 313 313 314 300 287 296 294 296 296 294 297 300 298 298 298 293 290 291 288 285 284 282 289 291 291 293 287 292 294 290 291 290 290 291 293
303 303 304 304 305 306 308 310 312 311 311 314 301 291 286 299 291 293 295 292 294 296 296 298 295 289 288 284 281 282 279 281 285 289 287 287 286 291 289 287 288 287 286 287 289
303 303 303 303 305 306 308 309 308 308 310 307 300 287 290 287 291 293 294 296 293 291 291 290 287 283 282 281 276 278 277 280 280 283 282 280 283 288 284 283 284 283 283 284 286
303 303 303 304 305 306 301 295 290 288 292 287 289 289 289 292 293 291 294 293 292 288 283 285 281 279 281 282 282 279 279 278 280 284 281 281 283 287 287 284 283 284 283 283 285
303 303 303 304 304 304 296 290 292 294 286 292 293 293 295 294 289 290 294 287 286 281 283 281 279 284 285 284 283 281 279 279 283 284 280 280 280 285 284 285 287 288 287 285 284
302 302 302 303 301 294 292 291 296 296 288 289 293 293 291 294 290 289 291 287 284 281 282 279 281 286 284 281 281 280 279 279 280 281 280 278 277 282 283 284 285 286 289 288 286
302 302 302 301 292 289 292 295 296 296 274 279 287 289 289 289 285 291 292 286 283 280 281 280 285 283 282 281 282 278 283 282 281 278 273 278 269 279 281 282 283 284 283 286 286
302 302 301 298 288 287 291 294 297 289 263 279 285 293 290 286 285 285 290 286 280 280 280 279 280 281 281 282 284 280 281 281 280 276 275 275 271 277 279 280 283 284 285 285 286
301 301 299 292 287 289 291 294 292 271 263 278 285 284 284 284 284 285 285 287 285 280 280 280 282 283 282 283 284 283 282 281 279 276 264 275 274 275 277 282 283 284 285 285 284
301 299 294 292 285 290 292 286 270 264 275 273 281 283 282 282 282 281 280 279 277 273 274 278 279 282 284 281 284 281 278 272 270 262 266 274 273 276 282 283 284 285 286 285 283
300 296 291 292 292 289 288 276 262 259 263 280 283 282 279 280 281 280 278 276 278 276 273 272 272 279 282 282 280 281 279 272 266 264 267 275 270 277 284 286 285 285 285 285 282
297 285 286 290 290 290 282 264 263 268 280 280 281 271 272 279 280 279 276 276 278 279 273 271 274 279 281 283 282 278 275 282 276 266 266 272 277 281 286 285 285 285 284 284 284
283 282 282 288 288 286 275 269 272 282 280 281 273 272 270 272 276 277 276 278 278 281 280 277 271 278 279 281 282 280 281 273 273 269 262 270 272 275 282 284 285 285 285 285 284
282 277 284 287 287 278 264 267 280 283 281 278 278 274 276 276 277 274 277 277 279 280 282 279 277 276 277 276 276 276 273 275 278 275 266 263 272 279 282 283 284 285 285 284 283
280 269 284 284 272 260 264 277 280 279 279 279 279 278 276 274 270 276 277 277 279 280 275 280 279 272 275 278 279 279 277 279 273 270 272 269 275 286 283 283 283 285 285 284 284
273 275 283 281 263 262 269 276 277 278 277 276 276 278 276 269 265 272 275 280 280 278 277 279 275 269 271 275 277 276 277 279 277 277 273 267 274 284 285 284 284 285 286 285 284
274 268 272 274 274 271 265 268 273 279 277 278 278 278 273 266 272 264 273 277 279 277 281 282 276 273 269 271 273 274 277 278 275 272 272 275 278 283 285 287 288 288 288 286 285
275 269 270 264 267 272 274 273 273 269 276 278 275 275 272 261 263 263 268 273 275 278 276 274 263 271 271 273 274 275 275 277 276 276 274 278 277 281 284 286 288 284 284 284 284
275 273 273 265 271 273 273 269 272 272 273 273 272 275 273 264 269 263 264 266 270 271 270 272 261 269 266 272 274 271 273 276 279 278 277 278 278 283 286 287 285 286 286 284 285
286 284 276 277 273 272 272 272 273 276 276 277 275 270 273 274 275 275 275 275 272 268 266 266 262 258 258 270 270 266 273 277 279 279 277 275 281 284 284 286 287 288 287 286 287
Wind_Speed
19 19 19 19 18 19 19 19 18 17 17 18 19 20 18 14 10 3 5 7 4 6 4 5 2 3 3 2 3 3 2 7 12 8 5 2 2 2 1 3 1 3 5 4 11
17 18 18 18 19 19 19 19 18 18 18 18 18 20 16 10 2 6 8 6 6 9 4 5 4 5 2 4 3 4 5 9 3 5 4 2 2 1 0 3 2 2 0 3 11
16 17 19 19 19 19 19 19 19 19 18 18 18 18 12 5 4 4 7 8 8 6 2 3 4 4 2 3 5 6 8 12 2 4 3 3 3 3 2 4 6 8 3 6 8
19 19 20 21 22 21 21 21 21 20 19 17 16 15 8 2 4 2 4 6 6 5 4 4 4 5 4 6 5 3 8 10 4 4 2 3 2 3 5 5 2 6 5 8 10
20 20 22 22 23 23 23 23 22 21 19 17 14 12 3 2 8 2 5 6 4 3 5 4 4 5 4 4 3 5 5 4 10 7 5 3 7 6 7 7 2 3 8 12 11
20 21 22 23 23 24 24 23 21 20 18 14 11 3 1 3 1 3 5 4 3 3 3 5 5 5 4 4 7 4 6 16 8 6 4 6 6 6 6 4 7 5 9 10 9
21 22 23 25 27 26 24 22 21 19 17 12 7 3 2 11 3 2 3 1 2 3 2 3 2 2 1 3 3 4 8 8 5 6 8 4 11 12 6 5 8 10 9 9 13
22 23 25 27 28 27 25 23 22 17 11 8 4 3 6 3 1 0 1 1 0 3 2 2 4 2 2 4 4 3 2 3 3 9 6 11 24 3 9 9 14 11 10 10 13
23 24 26 28 28 26 25 23 10 5 2 9 4 3 7 4 2 2 1 1 1 0 2 1 3 3 2 1 5 3 5 5 7 8 4 7 9 4 5 9 11 9 9 9 10
24 25 27 29 27 26 24 12 7 6 5 1 2 1 3 3 2 0 1 3 3 2 2 2 4 1 1 4 7 4 4 4 6 1 2 1 17 11 4 6 9 9 9 9 10
24 27 28 27 25 23 11 5 8 7 8 1 3 4 4 5 3 2 1 3 2 5 3 2 2 10 9 4 4 1 3 4 3 3 3 7 14 20 10 7 10 12 11 10 14
25 27 28 25 18 17 6 7 5 4 9 5 5 5 6 3 4 3 1 3 2 4 3 3 7 8 2 5 6 5 4 7 7 4 4 6 13 18 9 12 15 19 14 14 7
24 27 27 26 9 6 5 7 5 5 4 7 4 3 2 6 5 4 6 2 3 4 5 6 5 3 6 3 4 4 6 6 10 5 4 6 10 13 8 12 10 11 13 10 15
24 26 26 24 7 5 3 10 6 3 5 4 2 1 1 1 1 1 3 1 1 4 5 6 5 4 3 5 7 6 8 10 9 0 5 3 8 7 7 10 6 10 10 14 14
24 25 25 13 2 4 7 11 8 2 6 4 2 2 1 1 1 1 1 2 3 2 4 7 2 3 4 7 8 9 1 3 3 4 2 2 1 9 2 7 10 11 12 14 13
23 24 22 5 3 3 9 8 1 10 8 4 4 5 4 0 1 2 1 1 1 3 4 7 1 4 7 2 4 2 2 4 5 2 2 9 8 6 5 10 8 4 5 9 10
23 25 7 1 4 10 6 3 8 7 5 8 5 6 5 3 3 1 1 1 3 3 3 4 6 4 3 3 1 2 1 3 5 5 8 3 4 8 8 12 6 7 7 6 7
24 16 6 2 6 6 3 8 5 3 5 5 5 6 3 7 2 2 2 3 4 2 1 2 8 6 3 4 6 8 6 6 7 4 6 2 10 8 10 11 10 8 9 4 7
17 5 3 5 8 3 6 5 8 5 4 8 6 6 6 4 4 4 2 2 3 6 5 2 6 0 0 1 2 4 4 3 4 3 2 7 9 9 14 9 8 10 5 8 6
3 4 4 10 7 5 7 1 1 4 5 5 1 3 4 6 7 6 2 8 9 7 4 5 5 1 2 1 2 4 1 3 3 3 6 6 7 7 12 7 9 8 7 7 5
5 5 4 12 4 7 4 3 2 2 5 3 3 5 3 5 5 4 5 4 9 9 9 6 3 3 1 5 7 2 2 1 4 5 5 3 8 8 8 4 5 10 9 5 6
2 4 5 6 6 1 3 2 6 3 2 3 2 2 2 4 3 4 4 4 7 8 7 5 4 5 10 4 3 3 6 7 5 5 4 3 11 8 3 6 3 6 8 4 2
2 3 5 4 4 2 4 3 3 4 4 5 4 2 2 1 3 2 4 1 6 9 6 7 4 5 8 5 4 5 5 6 2 3 12 5 9 3 4 5 2 5 8 6 2
3 4 6 5 0 6 2 3 3 1 3 2 3 1 2 3 1 5 4 4 4 6 5 4 4 6 4 1 5 7 11 7 5 6 11 23 20 16 18 19 11 7 5 6 7
2 4 4 4 5 3 2 5 3 3 3 2 2 5 6 2 4 5 3 4 7 7 1 2 5 4 7 12 13 17 18 17 14 23 11 31 16 18 20 16 19 5 5 4 6
4 3 1 3 2 4 6 5 9 8 6 6 8 12 6 7 10 10 5 2 5 4 3 2 5 6 11 12 10 16 20 19 23 16 21 23 34 11 11 12 13 16 11 7 8
2 0 4 6 4 5 7 9 10 7 8 13 11 3 9 18 13 12 9 6 7 6 3 3 2 4 8 6 13 17 14 19 18 16 13 19 25 7 13 19 21 18 12 14 14
Wind_Direction
354 345 345 338 338 334 332 335 335 335 336 336 335 330 329 319 325 342 237 217 190 213 134 112 98 123 81 159 172 128 206 221 227 210 233 285 180 175 154 157 359 189 154 278 126
354 351 344 340 338 334 330 328 329 329 329 331 334 333 332 335 290 236 249 241 218 156 118 149 158 128 148 191 194 173 200 232 211 194 245 267 210 234 249 176 241 286 80 106 134
353 351 346 344 339 335 332 326 324 323 323 326 330 332 333 348 317 263 314 216 160 144 102 158 126 136 191 168 200 204 233 231 237 243 232 236 231 183 181 227 219 205 180 164 158
354 346 339 334 334 331 327 322 319 317 316 316 322 329 333 339 316 343 54 123 121 110 110 124 133 155 184 209 216 239 230 240 264 235 223 229 305 267 182 227 193 235 177 171 171
350 342 341 335 331 328 323 318 314 309 307 305 311 321 354 336 257 322 75 85 80 107 154 158 149 158 186 206 205 235 248 245 237 252 252 305 241 236 244 243 229 113 157 187 193
354 348 340 336 332 328 320 314 308 306 304 298 296 315 99 265 349 120 110 90 116 139 181 161 197 209 243 228 172 232 232 245 252 243 249 221 244 148 239 224 224 192 199 196 196
350 346 343 338 334 328 321 316 309 301 297 293 279 154 138 239 13 76 132 154 177 160 177 226 213 170 220 281 265 263 267 283 231 205 231 177 264 232 222 186 219 222 230 210 212
349 347 345 338 334 328 323 318 311 297 282 279 232 102 243 282 296 10 164 359 162 204 236 265 215 260 211 310 323 261 215 228 217 167 238 173 254 294 217 203 240 224 221 224 219
351 348 344 340 334 330 328 324 341 31 151 131 81 121 280 310 1 323 119 7 87 246 272 295 140 202 302 116 339 257 249 241 314 197 160 190 266 236 207 195 234 243 237 229 243
350 348 346 341 337 334 331 323 20 32 49 27 83 23 324 322 316 265 175 122 87 93 20 58 47 109 15 135 223 216 233 247 241 282 116 163 265 256 220 199 230 247 251 237 232
351 350 347 345 340 346 351 17 15 353 34 324 283 267 262 301 293 351 28 112 101 65 154 338 108 220 220 234 240 67 229 266 272 282 234 234 255 265 253 240 234 246 235 230 234
353 351 347 346 345 5 24 61 35 305 315 260 240 254 255 274 315 294 138 146 138 184 133 38 240 236 232 218 244 255 261 269 279 257 199 286 269 270 243 238 234 232 230 222 197
352 351 348 344 352 37 65 77 305 316 270 295 232 242 254 139 210 271 143 144 169 180 194 182 220 39 178 198 220 243 228 252 248 326 253 304 274 265 261 254 249 234 227 220 202
350 352 352 345 45 323 63 339 324 247 51 275 273 273 195 182 201 332 202 148 221 219 187 232 271 214 159 223 181 267 210 237 250 250 238 94 287 268 258 271 232 242 218 223 207
349 350 354 28 294 33 303 321 310 93 23 279 331 304 318 221 356 350 221 79 241 213 124 245 224 202 214 224 161 228 169 193 208 194 335 227 358 269 300 291 268 246 227 225 209
345 346 349 17 11 259 306 303 63 43 258 335 317 351 355 335 312 24 37 338 221 262 220 245 273 210 208 151 179 120 89 65 44 70 330 220 191 256 192 220 247 245 240 228 205
340 339 357 357 321 321 316 37 36 128 321 318 339 357 334 293 304 167 129 223 202 52 304 307 228 195 164 147 93 133 132 3 331 354 231 331 240 251 268 263 244 265 280 260 205
338 347 328 336 319 326 33 50 97 237 252 327 319 314 280 10 342 30 57 297 239 93 3 212 321 175 183 207 194 175 159 165 201 245 291 70 242 245 248 272 260 252 253 236 189
344 339 16 321 332 339 70 63 203 207 308 329 321 40 321 351 13 2 197 255 292 191 185 216 268 279 99 359 97 230 192 176 58 83 26 243 288 286 282 270 273 260 260 255 216
10 342 303 324 333 49 69 212 119 352 343 349 311 102 340 311 2 21 313 12 338 3 339 287 313 0 357 58 43 163 220 82 19 235 262 277 274 241 305 310 349 320 280 261 208
36 17 279 331 37 46 120 232 19 342 14 340 326 326 342 355 326 305 294 49 352 329 329 349 180 279 65 203 191 128 285 13 136 158 206 299 265 222 260 7 349 321 321 294 217
18 16 318 356 54 30 84 348 328 351 330 323 329 353 337 21 317 278 320 60 352 5 7 339 292 264 221 237 203 179 207 177 169 233 230 188 265 278 239 307 296 344 329 338 242
72 294 324 49 99 2 312 320 352 353 346 352 326 18 86 231 342 247 355 0 15 32 26 345 313 313 334 4 3 227 204 212 135 117 227 179 256 285 303 312 301 346 354 353 202
68 357 325 34 62 117 103 308 339 311 266 264 287 327 36 333 220 277 323 317 14 344 297 275 269 259 249 42 343 300 320 273 210 227 248 240 253 284 300 303 291 296 307 308 265
55 254 187 289 310 147 174 166 251 270 245 212 277 222 223 257 328 258 296 318 330 316 337 115 252 265 280 293 299 285 278 262 233 242 232 258 241 245 253 270 276 313 275 287 283
146 183 307 227 221 162 210 224 211 242 172 233 223 247 228 192 205 240 173 173 227 324 12 351 269 304 282 272 271 290 280 268 253 249 253 265 270 257 284 277 285 279 295 281 270
114 357 119 199 191 195 193 217 219 236 228 228 235 171 254 237 240 234 230 220 213 180 232 223 218 33 269 4 330 293 263 234 247 231 240 249 258 278 271 265 258 265 254 258 259